Weather Roundup
Issued by NWS Corpus Christi, TX

Home | Current Version | Previous Version | Text Only | Print | Product List | Glossary On
Versions: 1 2 3 4 5 6 7 8 9 10 11 12 13 14 15 16 17 18 19 20 21 22 23 24 25 26 27 28 29 30 31 32 33 34 35 36 37 38 39 40 41 42 43 44 45 46 47 48 49 50
000
ASUS44 KCRP 202310
HRRCRP

SOUTH TEXAS REGIONAL WEATHER ROUNDUP
NATIONAL WEATHER SERVICE CORPUS CHRISTI TX
600 PM CDT SUN APR 20 2014


TXZ229>244-210000-
...CORPUS CHRISTI AREA OBSERVATIONS...

CITY           SKY/WX    TMP DP  RH WIND       PRES   REMARKS
CORPUS CHRISTI MOSUNNY   78  63  59 SE16      30.04S
NAS CORPUS CHR SUNNY     75  66  73 SE22      30.04F
ROCKPORT       SUNNY     75  64  68 SE18G25   30.06S
KINGSVILLE NAS PTSUNNY   76  65  68 SE17G26   30.03S
ALICE          CLOUDY    76  63  64 SE15G23   30.01F
FALFURRIAS     CLOUDY    78  65  64 SE12      30.01S
$$

...VICTORIA AREA OBSERVATIONS...

CITY           SKY/WX    TMP DP  RH WIND       PRES   REMARKS
VICTORIA       CLOUDY    77  59  53 SE17      30.06R
BEEVILLE       FAIR      78  61  57 SE14G21   30.03S
PLEASANTON     CLOUDY    77  61  58 SE9G16    30.02F
SAN ANTONIO    DRIZZLE   74  62  66 SE14      30.03F
$$

...LAREDO AREA OBSERVATIONS...

CITY           SKY/WX    TMP DP  RH WIND       PRES   REMARKS
LAREDO         CLOUDY    81  66  60 SE15      30.00F
COTULLA        CLOUDY    77  63  61 SE10      30.00F
DEL RIO        PTSUNNY   74  66  76 SE10      29.97F
MCALLEN        CLOUDY    77  64  64 SE18G24   30.01S
HEBBRONVILLE   CLOUDY    75  64  68 SE14      30.02S
$$

...OTHER TEXAS OBSERVATIONS...

CITY           SKY/WX    TMP DP  RH WIND       PRES   REMARKS
BROWNSVILLE    PTSUNNY   75  66  73 SE17      30.03F
HOUSTON        MOSUNNY   79  51  37 S9G20     30.06F
COL. STATION   SUNNY     79  57  46 S13       30.04F
AUSTIN         CLOUDY    75  61  61 E9        30.03F
WACO           CLOUDY    74  58  57 S12       30.02F
FORT WORTH     CLOUDY    73  54  51 SE7       30.03F
WICHITA FALLS  MOSUNNY   68  60  75 SE18      30.00S
LUBBOCK        PTSUNNY   76  49  38 SW18G24   29.95S
EL PASO        MOSUNNY   78  35  21 SW12G23   30.04F
$$

...MARINE OBSERVATIONS...

STATION/POSITION TIME  SKY/WX   TEMP    WIND        PRES    VSBY  WAVE   SWELL
                                AIR SEA DIR/SP/G                  HT/PER HT/PER
                 (UTC)          (F)     (DEG/KT/KT) (MB)    (MI)  (FT/S) (FT/S)
PORT ARANSAS     2300            69 70  110/ 14/ 16 1017.8F
BUOY 90 E PORT A NOT AVBL
BUOY 45 SE BAFFI 2300            69 69  120/ 10/ 12 1017.5F         3/ 5   2/ 6
BUOY 200 E PT IS NOT AVBL
BUOY 15 E GALVES 2300            68 69  120/  8/ 10 1018.8F         1/ 4
$$


USA.gov is the U.S. government's official web portal to all federal, state and local government web resources and services.